This demonstration page uses our WeatherBlox Daily Observations layout. Learn more.

Left ArrowRight Arrow

39.92423, -83.80882

Hourly Observations for May 21, 2020

Temp ( °F °C ) Dew Point ( °F °C ) Humidity (%) Winds ( mph kmh ) Pressure ( in mb ) Visibility ( mi km ) Precip ( " mm )
12:56 am 00:56 Cloudy with Light Rain 52 11.1 51 10.6 97 97 E 12 19 30.15 1021 10 16.0934 0 0
1:56 am 01:56 Cloudy with Light Rain 52 11.1 52 11.1 100 100 E 13 20 30.13 1020 10 16.0934 0 0
2:29 am 02:29 Cloudy with Light Rain 52 11 52 11 100 100 E 13 20 30.13 1020 10 16.0934 0 0
2:56 am 02:56 Cloudy with Light Rain 52 11.1 52 11.1 100 100 E 15 24 30.13 1020 10 16.0934 0 0
3:45 am 03:45 Cloudy 52 11 52 11 100 100 E 17 28 30.12 1020 10 16.0934 0 0
3:56 am 03:56 Cloudy 52 11.1 52 11.1 100 100 E 15 24 30.11 1020 10 16.0934 0 0
4:40 am 04:40 Cloudy 52 11 52 11 100 100 E 14 22 30.12 1020 10 16.0934 0 0
4:56 am 04:56 Cloudy 52 11.1 51 10.6 97 97 E 16 26 30.11 1020 10 16.0934 0 0
5:48 am 05:48 Cloudy 52 11 52 11 100 100 E 16 26 30.11 1020 10 16.0934 0 0
5:56 am 05:56 Cloudy 52 11.1 51 10.6 97 97 E 16 26 30.11 1020 10 16.0934 0 0
6:56 am 06:56 Cloudy 52 11.1 51 10.6 97 97 E 16 26 30.13 1020 10 16.0934 0 0
7:12 am 07:12 Cloudy 52 11 52 11 100 100 E 15 24 30.13 1020 10 16.0934 0 0
7:56 am 07:56 Cloudy 52 11.1 51 10.6 97 97 E 14 22 30.13 1020 10 16.0934 0 0
8:48 am 08:48 Cloudy 54 12 52 11 94 94 E 14 22 30.13 1020 10 16.0934 0 0
8:56 am 08:56 Cloudy 53 11.7 52 11.1 96 96 E 15 24 30.14 1021 10 16.0934 0 0
9:56 am 09:56 Cloudy 54 12.2 53 11.7 97 97 E 16 26 30.15 1021 10 16.0934 0 0
10:56 am 10:56 Cloudy 55 12.8 54 12.2 96 96 E 15 24 30.15 1021 10 16.0934 0 0
11:53 am 11:53 Cloudy 55 13 54 12 94 94 ESE 16 26 30.15 1021 10 16.0934 0 0
11:56 am 11:56 Cloudy 55 12.8 55 12.8 100 100 E 16 26 30.16 1021 10 16.0934 0 0
12:56 pm 12:56 Cloudy 57 13.9 57 13.9 100 100 E 15 24 30.15 1021 10 16.0934 0 0
1:56 pm 13:56 Cloudy 59 15 58 14.4 96 96 E 14 22 30.13 1020 10 16.0934 0 0
2:16 pm 14:16 Cloudy 57 14 57 14 100 100 ESE 15 24 30.12 1020 10 16.0934 0 0
2:56 pm 14:56 Cloudy 60 15.6 58 14.4 93 93 ESE 15 24 30.12 1020 10 16.0934 0 0
3:56 pm 15:56 Cloudy 60 15.6 58 14.4 93 93 ESE 14 22 30.1 1019 10 16.0934 0 0
4:56 pm 16:56 Cloudy 60 15.6 59 15 96 96 ESE 17 28 30.09 1019 10 16.0934 0 0
5:47 pm 17:47 Cloudy 61 16 61 16 100 100 SE 13 20 30.07 1018 10 16.0934 0 0
5:56 pm 17:56 Cloudy 60 15.6 60 15.6 100 100 SE 14 22 30.08 1019 10 16.0934 0 0
6:45 pm 18:45 Cloudy with Light Rain 61 16 61 16 100 100 SE 12 19 30.06 1018 10 16.0934 0 0
6:52 pm 18:52 Cloudy with Light Rain 61 16 61 16 100 100 SE 15 24 30.07 1018 10 16.0934 0 0
6:56 pm 18:56 Cloudy with Light Rain 60 15.6 60 15.6 100 100 SE 14 22 30.08 1019 10 16.0934 0 0
7:56 pm 19:56 Cloudy 59 15 59 15 100 100 ESE 10 17 30.09 1019 10 16.0934 0 0
8:16 pm 20:16 Cloudy 59 15 59 15 100 100 ESE 9 15 30.08 1019 10 16.0934 0 0
8:26 pm 20:26 Cloudy 59 15 59 15 100 100 ESE 8 13 30.08 1019 10 16.0934 0 0
8:49 pm 20:49 Cloudy 59 15 59 15 100 100 ESE 9 15 30.08 1019 10 16.0934 0 0
8:56 pm 20:56 Cloudy 59 15 59 15 100 100 ESE 8 13 30.09 1019 10 16.0934 0 0
9:32 pm 21:32 Cloudy with Rain 59 15 59 15 100 100 E 8 13 30.07 1018 10 16.0934 0 0
9:56 pm 21:56 Cloudy with Light Rain 58 14.4 58 14.4 100 100 E 8 13 30.09 1019 10 16.0934 0 0
10:56 pm 22:56 Cloudy with Light Rain 58 14.4 58 14.4 100 100 E 9 15 30.1 1019 10 16.0934 0 0
11:56 pm 23:56 Cloudy with Light Rain 58 14.4 58 14.4 100 100 ESE 8 13 30.09 1019 10 16.0934 0 0

Powered by AerisWeather